Tracking 29091 objects as of 17-Jul-2024
HD Live streaming from Space Station
objects crossing your sky now

STARLINK-4550

Track STARLINK-4550 now!
10-day predictions
STARLINK-4550 is classified as:


NORAD ID: 53570
Int'l Code: 2022-101AV
Perigee: 546.0 km
Apogee: 547.8 km
Inclination: 53.2 °
Period: 95.4 minutes
Semi major axis: 6917 km
RCS: Unknown
Launch date: August 19, 2022
Source: United States (US)
Launch site: AIR FORCE EASTERN TEST RANGE (AFETR)
Your satellite tracking list
Your tracking list is empty




NASA's NSSDC Master Catalog

Two Line Element Set (TLE):
1 53570U 22101AV  24199.07225087  .00001180  00000-0  92224-4 0  9995
2 53570  53.2166 230.3099 0001318  88.9440 271.1703 15.08831416105775
Source of the keplerian elements: AFSPC